• In United Kingdom
  • List of Countries
  • For 7 days
  • Water Temperature
  • Satellite Maps
  • Weather Map
  • Weather Widgets
  • user-avatar
    Login

    Hourly Weather Tarfaya

    Today, 25 November, Saturday

    Time Temperature Precipitation Wind Pressure Humidity
    00:00 +27°C° 0 mm 3 mps 760 mmHg 19%
    01:00 +27°C° 0 mm 4 mps 760 mmHg 18%
    02:00 +27°C° 0 mm 5 mps 760 mmHg 17%
    03:00 +26°C° 0 mm 6 mps 759 mmHg 17%
    04:00 +26°C° 0 mm 7 mps 759 mmHg 16%
    05:00 +26°C° 0 mm 8 mps 759 mmHg 15%
    06:00 +26°C° 0 mm 9 mps 760 mmHg 15%
    07:00 +26°C° 0 mm 9 mps 760 mmHg 15%
    08:00 +27°C° 0 mm 9 mps 760 mmHg 14%
    09:00 +28°C° 0 mm 9 mps 761 mmHg 13%
    10:00 +29°C° 0 mm 9 mps 761 mmHg 12%
    11:00 +32°C° 0 mm 9 mps 761 mmHg 11%
    12:00 +33°C° 0 mm 8 mps 760 mmHg 11%
    13:00 +34°C° 0 mm 7 mps 760 mmHg 11%
    14:00 +35°C° 0 mm 7 mps 759 mmHg 10%
    15:00 +34°C° 0 mm 6 mps 759 mmHg 12%
    16:00 +33°C° 0 mm 5 mps 759 mmHg 13%
    17:00 +30°C° 0 mm 5 mps 760 mmHg 15%
    18:00 +29°C° 0 mm 4 mps 760 mmHg 18%
    19:00 +28°C° 0 mm 4 mps 761 mmHg 21%
    20:00 +27°C° 0 mm 4 mps 761 mmHg 24%
    21:00 +26°C° 0 mm 4 mps 761 mmHg 22%
    22:00 +26°C° 0 mm 4 mps 761 mmHg 19%
    23:00 +26°C° 0 mm 5 mps 762 mmHg 17%

    Tomorrow, 26 November, Sunday

    Time Temperature Precipitation Wind Pressure Humidity
    00:00 +26°C° 0 mm 5 mps 762 mmHg 17%
    01:00 +25°C° 0 mm 5 mps 762 mmHg 17%
    02:00 +24°C° 0 mm 6 mps 762 mmHg 17%
    03:00 +24°C° 0 mm 6 mps 762 mmHg 16%
    04:00 +23°C° 0 mm 7 mps 761 mmHg 16%
    05:00 +23°C° 0 mm 7 mps 761 mmHg 16%
    06:00 +24°C° 0 mm 7 mps 762 mmHg 16%
    07:00 +24°C° 0 mm 8 mps 763 mmHg 15%
    08:00 +26°C° 0 mm 8 mps 763 mmHg 15%
    09:00 +27°C° 0 mm 8 mps 763 mmHg 13%
    10:00 +29°C° 0 mm 7 mps 763 mmHg 12%
    11:00 +32°C° 0 mm 7 mps 763 mmHg 11%
    12:00 +33°C° 0 mm 6 mps 763 mmHg 11%
    13:00 +34°C° 0 mm 5 mps 762 mmHg 12%
    14:00 +35°C° 0 mm 4 mps 762 mmHg 12%
    15:00 +33°C° 0 mm 3 mps 762 mmHg 14%
    16:00 +31°C° 0 mm 2 mps 762 mmHg 17%
    17:00 +30°C° 0 mm 1 mps 762 mmHg 19%
    18:00 +29°C° 0 mm 1 mps 763 mmHg 21%
    19:00 +28°C° 0 mm 1 mps 763 mmHg 22%
    20:00 +28°C° 0 mm 1 mps 764 mmHg 24%
    21:00 +27°C° 0 mm 1 mps 764 mmHg 23%
    22:00 +27°C° 0 mm 1 mps 764 mmHg 22%
    23:00 +27°C° 0 mm 1 mps 764 mmHg 21%

    Day after tomorrow, 27 November, Monday

    Time Temperature Precipitation Wind Pressure Humidity
    00:00 +26°C° 0 mm 2 mps 764 mmHg 19%
    01:00 +26°C° 0 mm 3 mps 763 mmHg 17%
    02:00 +25°C° 0 mm 3 mps 763 mmHg 15%
    03:00 +25°C° 0 mm 4 mps 763 mmHg 14%
    04:00 +25°C° 0 mm 4 mps 763 mmHg 14%
    05:00 +25°C° 0 mm 5 mps 763 mmHg 14%
    06:00 +25°C° 0 mm 5 mps 763 mmHg 13%
    07:00 +25°C° 0 mm 5 mps 764 mmHg 12%
    08:00 +26°C° 0 mm 6 mps 764 mmHg 11%
    09:00 +27°C° 0 mm 6 mps 764 mmHg 10%
    10:00 +29°C° 0 mm 6 mps 764 mmHg 9%
    11:00 +32°C° 0 mm 6 mps 765 mmHg 8%
    12:00 +32°C° 0 mm 5 mps 764 mmHg 8%
    13:00 +33°C° 0 mm 4 mps 763 mmHg 8%
    14:00 +33°C° 0 mm 3 mps 763 mmHg 8%
    15:00 +31°C° 0 mm 3 mps 763 mmHg 9%
    16:00 +30°C° 0 mm 3 mps 763 mmHg 10%
    17:00 +29°C° 0 mm 3 mps 763 mmHg 12%
    18:00 +28°C° 0 mm 2 mps 763 mmHg 15%
    19:00 +27°C° 0 mm 2 mps 764 mmHg 18%
    20:00 +26°C° 0 mm 2 mps 764 mmHg 21%
    21:00 +26°C° 0 mm 1 mps 764 mmHg 21%
    22:00 +25°C° 0 mm 1 mps 764 mmHg 21%
    23:00 +25°C° 0 mm 1 mps 764 mmHg 22%

    28 November, Tuesday

    Time Temperature Precipitation Wind Pressure Humidity
    00:00 +25°C° 0 mm 1 mps 763 mmHg 21%
    01:00 +25°C° 0 mm 1 mps 763 mmHg 20%
    02:00 +25°C° 0 mm 1 mps 763 mmHg 19%
    03:00 +25°C° 0 mm 1 mps 763 mmHg 18%
    04:00 +24°C° 0 mm 1 mps 762 mmHg 17%
    05:00 +24°C° 0 mm 1 mps 762 mmHg 17%
    06:00 +25°C° 0 mm 1 mps 763 mmHg 15%
    07:00 +26°C° 0 mm 1 mps 763 mmHg 14%
    08:00 +26°C° 0 mm 1 mps 763 mmHg 13%
    09:00 +28°C° 0 mm 1 mps 763 mmHg 11%
    10:00 +29°C° 0 mm 1 mps 763 mmHg 10%
    11:00 +31°C° 0 mm 1 mps 763 mmHg 8%
    12:00 +31°C° 0 mm 2 mps 762 mmHg 9%
    13:00 +33°C° 0 mm 3 mps 762 mmHg 9%
    14:00 +33°C° 0 mm 3 mps 761 mmHg 10%
    15:00 +31°C° 0 mm 3 mps 761 mmHg 14%
    16:00 +29°C° 0 mm 3 mps 761 mmHg 18%
    17:00 +28°C° 0 mm 3 mps 761 mmHg 22%
    18:00 +27°C° 0 mm 3 mps 761 mmHg 29%
    19:00 +26°C° 0 mm 2 mps 761 mmHg 35%
    20:00 +25°C° 0 mm 2 mps 762 mmHg 42%
    21:00 +24°C° 0 mm 2 mps 761 mmHg 46%
    22:00 +24°C° 0 mm 2 mps 761 mmHg 51%
    23:00 +24°C° 0 mm 2 mps 761 mmHg 55%

    29 November, Wednesday

    Time Temperature Precipitation Wind Pressure Humidity
    00:00 +23°C° 0 mm 2 mps 761 mmHg 61%
    01:00 +23°C° 0 mm 1 mps 760 mmHg 66%
    02:00 +22°C° 0 mm 1 mps 760 mmHg 72%
    03:00 +22°C° 0 mm 1 mps 760 mmHg 75%
    04:00 +22°C° 0 mm 1 mps 760 mmHg 77%
    05:00 +22°C° 0 mm 1 mps 760 mmHg 80%
    06:00 +22°C° 0 mm 1 mps 760 mmHg 78%
    07:00 +23°C° 0 mm 1 mps 760 mmHg 77%
    08:00 +23°C° 0 mm 1 mps 760 mmHg 75%
    09:00 +24°C° 0 mm 2 mps 760 mmHg 68%
    10:00 +26°C° 0 mm 2 mps 760 mmHg 60%
    11:00 +27°C° 0 mm 3 mps 760 mmHg 52%
    12:00 +27°C° 0 mm 3 mps 760 mmHg 51%
    13:00 +27°C° 0 mm 3 mps 759 mmHg 50%
    14:00 +27°C° 0 mm 4 mps 759 mmHg 49%
    15:00 +26°C° 0 mm 3 mps 759 mmHg 55%
    16:00 +25°C° 0 mm 3 mps 759 mmHg 61%
    17:00 +25°C° 0 mm 3 mps 759 mmHg 67%
    18:00 +24°C° 0 mm 2 mps 760 mmHg 73%
    19:00 +23°C° 0 mm 2 mps 760 mmHg 79%
    20:00 +23°C° 0 mm 2 mps 761 mmHg 85%
    21:00 +21°C° 0 mm 2 mps 761 mmHg 87%
    22:00 +21°C° 0 mm 2 mps 761 mmHg 90%
    23:00 +21°C° 0 mm 2 mps 761 mmHg 92%

    30 November, Thursday

    Time Temperature Precipitation Wind Pressure Humidity
    00:00 +20°C° 0 mm 2 mps 760 mmHg 93%
    01:00 +20°C° 0 mm 2 mps 760 mmHg 94%
    02:00 +20°C° 0 mm 2 mps 760 mmHg 94%
    03:00 +20°C° 0 mm 2 mps 760 mmHg 95%
    04:00 +20°C° 0 mm 1 mps 760 mmHg 95%
    05:00 +20°C° 0 mm 1 mps 760 mmHg 96%
    06:00 +21°C° 0 mm 1 mps 761 mmHg 93%
    07:00 +21°C° 0 mm 1 mps 761 mmHg 90%
    08:00 +22°C° 0 mm 1 mps 762 mmHg 87%
    09:00 +23°C° 0 mm 1 mps 762 mmHg 78%
    10:00 +24°C° 0 mm 1 mps 762 mmHg 70%
    11:00 +25°C° 0 mm 2 mps 762 mmHg 61%
    12:00 +26°C° 0 mm 2 mps 762 mmHg 58%
    13:00 +26°C° 0 mm 2 mps 761 mmHg 54%
    14:00 +27°C° 0 mm 2 mps 761 mmHg 50%
    15:00 +26°C° 0 mm 2 mps 761 mmHg 54%
    16:00 +25°C° 0 mm 2 mps 761 mmHg 58%
    17:00 +25°C° 0 mm 2 mps 762 mmHg 63%
    18:00 +24°C° 0 mm 2 mps 762 mmHg 65%
    19:00 +23°C° 0 mm 2 mps 762 mmHg 68%
    20:00 +23°C° 0 mm 1 mps 763 mmHg 71%
    21:00 +22°C° 0 mm 1 mps 763 mmHg 73%
    22:00 +22°C° 0 mm 1 mps 763 mmHg 75%
    23:00 +22°C° 0 mm 1 mps 762 mmHg 76%
    Show more